AirNav   Everest Fuels
 
 1451 users online  

FA91 Orange County Convention Center Heliport
Orlando, Florida, USA

GOING TO ORLANDO?


FAA INFORMATION EFFECTIVE 16 JULY 2020

Location

FAA Identifier: FA91
Lat/Long: 28-25-51.0400N 081-27-22.6700W
28-25.850667N 081-27.377833W
28.4308444,-81.4562972
(estimated)
Elevation: 92 ft. / 28 m (estimated)
From city: 8 miles SW of ORLANDO, FL
Time zone: UTC -4 (UTC -5 during Standard Time)
Zip code: 32819

Heliport Operations

Heliport use: Private use. Permission required prior to landing
Activation date: 10/2017
Control tower: no
ARTCC: JACKSONVILLE CENTER
FSS: SAINT PETERSBURG FLIGHT SERVICE STATION
Attendance: 
Wind indicator: lighted
Segmented circle: no

Heliport Communications

WX ASOS at MCO (8 nm E): PHONE 407-855-5235
WX AWOS-3PT at ISM (9 nm S): 128.775 (407-847-0533)
WX ASOS at ORL (9 nm NE): PHONE 407-658-6753

Nearby radio navigation aids

VOR radial/distance  VOR name  Freq  Var
ORLr224/9.3ORLANDO VORTAC112.2000E
LALr047/39.8LAKELAND VORTAC116.0001E

Heliport Services

Runway Information

Helipad H1

Dimensions: 62 x 62 ft. / 19 x 19 m
Surface: concrete, in good condition
Runway edge lights: PERI
Latitude: 28-25.850667N
Longitude: 081-27.377833W
Elevation: 92.0 ft.
Traffic pattern: leftleft
Markings: NSTD

Heliport Ownership and Management from official FAA records

Ownership: Privately-owned
Owner: ORANGE COUNTY CONVENTION CENTER
9400 UNIVERSAL BLVD
ORLANDO, FL 32819
Manager: HECTOR CLEMENTE
P.O. BOX 691509
ORLANDO, FL 32869-1509
Phone (407) 685-7112
OTR CTC JOHN ROBERTS 407-685-5689; JOHN.ROBERTS@OCCC.NET

Additional Remarks

FOR CD CTC ORLANDO APCH AT 407-852-7553.

Instrument Procedures

There are no published instrument procedures at FA91.

Some nearby airports with instrument procedures:

KMCO - Orlando International Airport (8 nm E)
KISM - Kissimmee Gateway Airport (9 nm S)
KORL - Executive Airport (9 nm NE)
X04 - Orlando Apopka Airport (18 nm N)
KSFB - Orlando Sanford International Airport (24 nm NE)
 
Loc | Ops | Rwys | IFR | FBO | Links
Com | Nav | Svcs | Stats | Notes
Aerial photo
No photo
 
Airport distance calculator
Flying to Orange County Convention Center Heliport? Find the distance to fly.

From to FA91

Sunrise and sunset
Times for 07-Aug-2020
 Local
(UTC-4)
 Zulu
(UTC)
Morning civil twilight06:2710:27
Sunrise06:5210:52
Sunset20:1000:10
Evening civil twilight20:3500:35

Current date and time
Zulu (UTC)  07-Aug-2020 16:58:30
Local (UTC-4)  07-Aug-2020 12:58:30
 
METAR
KMCO 
7nm E 
071653Z 09004KT 10SM SCT037 SCT300 32/23 A3010 RMK AO2 SLP190 T03220233
KISM 
9nm S 
071556Z 00000KT 10SM SCT025 32/24 A3012 RMK AO2 SLP198 T03170244 PNO $
KORL 
10nm NE 
071653Z 15003KT 10SM FEW055 33/22 A3010 RMK AO2 SLP195 T03330217
TAF
KMCO 
7nm E 
071512Z 0715/0818 29004KT P6SM SCT035 SCT250 FM072000 10007KT P6SM VCTS SCT045CB SCT060 TEMPO 0720/0722 3SM TSRA BKN035CB FM080100 15004KT P6SM SCT060 BKN250 FM081500 VRB05KT P6SM SCT035 SCT250
KISM 
9nm S 
071143Z 0712/0812 VRB03KT P6SM FEW025 SCT180 FM071400 32004KT P6SM SCT035 SCT250 FM071900 12007KT P6SM VCTS SCT045CB SCT060 TEMPO 0721/0723 3SM TSRA BKN035CB FM080100 15003KT P6SM SCT060 BKN250
NOTAMs
Click for the latest NOTAMs
NOTAMs are issued by the DoD/FAA and will open in a separate window not controlled by AirNav.

 

 
 

Would you like to see your business listed on this page?

 If your business provides an interesting product or service to pilots, flight crews, aircraft, or users of the Orange County Convention Center Heliport, you should consider listing it here.  To start the listing process, click on the button below
 
Add a business
 

Other Pages about Orange County Convention Center Heliport

Update a link
 
Copyright © AirNav, LLC. All rights reserved. Privacy Policy  Contact